Regional Weather Roundup
Issued by NWS

Home | Current Version | Previous Version | Graphics & Text | Print | Product List | Glossary On
Versions: 1 2 3 4 5 6 7 8 9 10 11 12 13 14 15 16 17 18 19 20 21 22 23 24 25 26 27
000
ASUS45 KPSR 231610
RWRAZ

ARIZONA HOURLY REGIONAL WEATHER ROUNDUP
NATIONAL WEATHER SERVICE PHOENIX AZ
900 AM MST SUN APR 23 2017

NOTE: FAIR INDICATES FEW OR NO CLOUDS BELOW 12,000 FEET WITH NO
SIGNIFICANT WEATHER AND/OR OBSTRUCTIONS TO VISIBILITY.

AZZ001>003-036-231700-
NORTHWEST ARIZONA

CITY           SKY/WX    TMP DP  RH WIND       PRES   REMARKS
BULLHEAD CITY  PTSUNNY   73  28  19 CALM      29.77R
KINGMAN        MOSUNNY   80  29  15 S18G26    29.88S
$$

AZZ004>008-015-016-018-231700-
NORTH CENTRAL ARIZONA

CITY           SKY/WX    TMP DP  RH WIND       PRES   REMARKS
GRAND CANYON   SUNNY     61  23  23 S15G26    30.06F
WILLIAMS       SUNNY     64  19  17 SW13G20   30.09S
PRESCOTT       SUNNY     71  22  15 S10       30.02S
FLAGSTAFF      SUNNY     60  20  21 SW15G25   30.10S
PAYSON         SUNNY     64  28  25 VRB7      30.10S
PAGE           MOSUNNY   61  22  22 CALM      29.95F
$$

AZZ009>014-017-231700-
NORTHEAST ARIZONA

CITY           SKY/WX    TMP DP  RH WIND       PRES   REMARKS
WINSLOW        SUNNY     69  25  19 SE12      30.02F
SAINT JOHNS    SUNNY     71  25  17 S10       30.05F
WINDOW ROCK    SUNNY     58  27  30 S7        30.13F
SHOW LOW       SUNNY     63  27  25 S20G28    30.11S
$$

AZZ540-542>544-546-548-231700-
GREATER PHOENIX AREA

CITY           SKY/WX    TMP DP  RH WIND       PRES   REMARKS
PHOENIX        MOSUNNY   79  30  16 E8        29.83R
BUCKEYE        SUNNY     82  27  13 E10G18    29.83S
GLENDALE       MOSUNNY   79  32  18 CALM      29.86R
LUKE AFB       SUNNY     78  33  19 CALM      29.84R
DEER VALLEY    SUNNY     79  29  16 W6        29.85R
SCOTTSDALE     SUNNY     79  35  20 SW5       29.87R
MESA-FALCON    MOSUNNY  N/A N/A N/A S6        29.86R
MESA-GATEWAY   MOSUNNY   81  36  19 SE7       29.85S
CHANDLER       SUNNY     82  37  20 E8        29.85R
$$

AZZ539-553-231700-
SOUTHWEST MARICOPA COUNTY AND PINAL COUNTY

CITY           SKY/WX    TMP DP  RH WIND       PRES   REMARKS
CASA GRANDE    SUNNY     81  31  16 E10       29.86S
GILA BEND      FAIR      80  21  11 NE5       29.81R
$$

AZZ503-504-507>509-231700-
SOUTHEAST ARIZONA

CITY           SKY/WX    TMP DP  RH WIND       PRES   REMARKS
TUCSON         SUNNY     81  27  14 SE17      29.93S
DAVIS-MONTHAN  SUNNY     81  29  15 SE17      29.92R
RYAN FIELD     SUNNY     79  21  11 E10       29.91S
NOGALES        SUNNY     78  17  10 VRB3      29.99R
SIERRA VISTA   SUNNY     72  30  21 SE17      30.07R
DOUGLAS        SUNNY     71  33  24 E12       30.06S
SAFFORD        SUNNY     71  34  25 SE14G28   30.06F
$$

AZZ532-231700-
SOUTHWEST ARIZONA

CITY           SKY/WX    TMP DP  RH WIND       PRES   REMARKS
YUMA           SUNNY     81  37  20 S6        29.78R
$$

CAZ041-043-047-048-061-525>527-560>570-231700-
SOUTHERN CALIFORNIA

CITY           SKY/WX    TMP DP  RH WIND       PRES   REMARKS
DOWNTOWN L.A.  SUNNY     68  54  60 W3        29.87S
L.A. AIRPORT   MOSUNNY   65  55  70 VRB3      29.88S
SAN DIEGO      PTSUNNY   64  57  78 S9        29.90R
BURBANK        SUNNY     64  50  60 CALM      29.88S
ONTARIO        MOSUNNY   67  50  54 CALM      29.88R
RIVERSIDE      SUNNY     69  49  48 SE5       29.88R
PALM SPRINGS   PTSUNNY   78  38  23 CALM      29.77S
EL CENTRO NAS  SUNNY     88  28  11 W15       29.77R
IMPERIAL       MOSUNNY   84  45  25 W6        29.74S
BLYTHE         MOSUNNY   78  35  21 SE5       29.76S
NEEDLES        PTSUNNY   77  28  16 NE3       29.77R
$$

NVZ020-UTZ003-231700-
SOUTHERN NEVADA-UTAH

CITY           SKY/WX    TMP DP  RH WIND       PRES   REMARKS
LAS VEGAS      PTSUNNY   77  23  13 S13G22    29.76S
SALT LAKE CITY MOSUNNY   58  38  47 NW9       29.85S
$$

NMZ009-TXZ055-231700-
NEW MEXICO-WEST TEXAS

CITY           SKY/WX    TMP DP  RH WIND       PRES   REMARKS
ALBUQUERQUE    MOSUNNY   54  30  40 VRB3      30.21F
EL PASO        MOSUNNY   61  32  33 E10       30.20F
$$


........................KEY........................
SKY/WX - SKY CONDITION/WEATHER
TMP    - TEMPERATURE IN FAHRENHEIT
DP     - DEW POINT IN FAHRENHEIT
RH     - RELATIVE HUMIDITY IN PERCENT
WIND   - DIRECTION AND SPEED IN MILES PER HOUR (MPH)
VRB    - VARIABLE WIND DIRECTION
PRES   - MEAN SEA LEVEL PRESSURE IN INCHES OF MERCURY
         F - FALLING PRESSURE   R - RISING PRESSURE
         S - STEADY PRESSURE
VSB    - VISIBILITY IN MILES
HX     - HEAT INDEX IN FAHRENHEIT
WCI    - WIND CHILL INDEX IN FAHRENHEIT
TC     - TEMPERATURE IN CELSIUS WHICH IS ALSO KNOWN AS
         TEMPERATURE IN CENTIGRADE
AFB    - AIR FORCE BASE
         LUKE AFB IS LUKE AIR FORCE BASE
         DAVIS-MONTHAN IS DAVIS-MONTHAN AIR FORCE BASE
NAS    - NAVAL AIR STATION
         EL CENTRO NAS IS EL CENTRO NAVAL AIR STATION
N/A    - NOT AVAILABLE





USA.gov is the U.S. government's official web portal to all federal, state and local government web resources and services.